When you browse on this site, cookies collect data to enhance your experience and personalize the content and advertising you see.
Visit our Privacy Policy to learn more. By continuing to use the site, you agree to this use of cookies and data.
  • In United Kingdom
  • List of Countries
  • For 7 days
  • Water Temperature
  • Weather Map
  • Weather Widgets
  • user-avatar
    Login

    Hourly Weather Cachungo

    Today, 28 May, Thursday

    Time Temperature Precipitation Wind Pressure Humidity
    00:00 +24°C° 0 mm 2 mps 757 mmHg 92%
    01:00 +24°C° 0 mm 2 mps 757 mmHg 93%
    02:00 +24°C° 0 mm 2 mps 756 mmHg 93%
    03:00 +24°C° 0 mm 2 mps 756 mmHg 93%
    04:00 +24°C° 0 mm 2 mps 756 mmHg 93%
    05:00 +24°C° 0 mm 1 mps 756 mmHg 92%
    06:00 +26°C° 0 mm 2 mps 757 mmHg 84%
    07:00 +27°C° 0 mm 2 mps 757 mmHg 76%
    08:00 +28°C° 0 mm 2 mps 758 mmHg 69%
    09:00 +31°C° 0 mm 2 mps 758 mmHg 56%
    10:00 +35°C° 0 mm 3 mps 757 mmHg 43%
    11:00 +38°C° 0 mm 3 mps 757 mmHg 30%
    12:00 +39°C° 0 mm 3 mps 757 mmHg 29%
    13:00 +41°C° 0 mm 4 mps 756 mmHg 28%
    14:00 +41°C° 0 mm 5 mps 756 mmHg 27%
    15:00 +39°C° 0 mm 5 mps 755 mmHg 32%
    16:00 +36°C° 0 mm 5 mps 755 mmHg 36%
    17:00 +34°C° 0 mm 5 mps 755 mmHg 41%
    18:00 +32°C° 0 mm 5 mps 755 mmHg 52%
    19:00 +29°C° 0 mm 4 mps 756 mmHg 62%
    20:00 +26°C° 0 mm 4 mps 757 mmHg 73%
    21:00 +26°C° 0 mm 3 mps 757 mmHg 75%
    22:00 +26°C° 0 mm 3 mps 757 mmHg 78%
    23:00 +25°C° 0 mm 2 mps 757 mmHg 81%

    Tomorrow, 29 May, Friday

    Time Temperature Precipitation Wind Pressure Humidity
    00:00 +25°C° 0 mm 2 mps 757 mmHg 81%
    01:00 +25°C° 0 mm 2 mps 756 mmHg 82%
    02:00 +25°C° 0 mm 2 mps 756 mmHg 83%
    03:00 +24°C° 0 mm 2 mps 756 mmHg 84%
    04:00 +24°C° 0 mm 2 mps 756 mmHg 85%
    05:00 +24°C° 0 mm 2 mps 756 mmHg 86%
    06:00 +26°C° 0 mm 2 mps 756 mmHg 74%
    07:00 +28°C° 0 mm 2 mps 756 mmHg 62%
    08:00 +30°C° 0 mm 2 mps 757 mmHg 50%
    09:00 +34°C° 0 mm 3 mps 757 mmHg 41%
    10:00 +37°C° 0 mm 3 mps 757 mmHg 32%
    11:00 +40°C° 0 mm 3 mps 757 mmHg 24%
    12:00 +40°C° 0 mm 4 mps 756 mmHg 26%
    13:00 +40°C° 0 mm 5 mps 755 mmHg 28%
    14:00 +39°C° 0 mm 6 mps 754 mmHg 30%
    15:00 +38°C° 0 mm 6 mps 754 mmHg 34%
    16:00 +35°C° 0 mm 6 mps 754 mmHg 38%
    17:00 +33°C° 0 mm 5 mps 753 mmHg 43%
    18:00 +30°C° 0 mm 5 mps 754 mmHg 53%
    19:00 +28°C° 0 mm 4 mps 755 mmHg 64%
    20:00 +26°C° 0 mm 4 mps 755 mmHg 75%
    21:00 +26°C° 0 mm 3 mps 755 mmHg 78%
    22:00 +25°C° 0 mm 3 mps 755 mmHg 80%
    23:00 +25°C° 0 mm 3 mps 756 mmHg 83%

    Day after tomorrow, 30 May, Saturday

    Time Temperature Precipitation Wind Pressure Humidity
    00:00 +24°C° 0 mm 3 mps 755 mmHg 85%
    01:00 +24°C° 0 mm 3 mps 755 mmHg 87%
    02:00 +22°C° 0 mm 3 mps 755 mmHg 89%
    03:00 +23°C° 0 mm 2 mps 755 mmHg 90%
    04:00 +23°C° 0 mm 2 mps 755 mmHg 91%
    05:00 +22°C° 0 mm 1 mps 755 mmHg 92%
    06:00 +25°C° 0 mm 1 mps 756 mmHg 80%
    07:00 +27°C° 0 mm 1 mps 756 mmHg 68%
    08:00 +30°C° 0 mm 1 mps 756 mmHg 56%
    09:00 +34°C° 0 mm 2 mps 756 mmHg 46%
    10:00 +37°C° 0 mm 2 mps 756 mmHg 36%
    11:00 +39°C° 0 mm 3 mps 756 mmHg 27%
    12:00 +39°C° 0 mm 3 mps 756 mmHg 27%
    13:00 +40°C° 0 mm 4 mps 755 mmHg 28%
    14:00 +40°C° 0 mm 5 mps 754 mmHg 29%
    15:00 +37°C° 0 mm 5 mps 754 mmHg 35%
    16:00 +35°C° 0 mm 5 mps 754 mmHg 41%
    17:00 +33°C° 0 mm 5 mps 753 mmHg 47%
    18:00 +30°C° 0 mm 4 mps 754 mmHg 57%
    19:00 +28°C° 0 mm 3 mps 755 mmHg 68%
    20:00 +26°C° 0 mm 3 mps 756 mmHg 78%
    21:00 +25°C° 0 mm 2 mps 756 mmHg 81%
    22:00 +25°C° 0 mm 2 mps 757 mmHg 83%
    23:00 +25°C° 0 mm 1 mps 758 mmHg 86%

    31 May, Sunday

    Time Temperature Precipitation Wind Pressure Humidity
    00:00 +24°C° 0 mm 1 mps 757 mmHg 87%
    01:00 +24°C° 0 mm 1 mps 757 mmHg 88%
    02:00 +24°C° 0 mm 1 mps 756 mmHg 89%
    03:00 +24°C° 0 mm 1 mps 756 mmHg 89%
    04:00 +24°C° 0 mm 1 mps 756 mmHg 90%
    05:00 +23°C° 0 mm 1 mps 756 mmHg 90%
    06:00 +25°C° 0 mm 2 mps 757 mmHg 79%
    07:00 +28°C° 0 mm 2 mps 757 mmHg 67%
    08:00 +30°C° 0 mm 2 mps 758 mmHg 56%
    09:00 +33°C° 0 mm 3 mps 758 mmHg 47%
    10:00 +35°C° 0 mm 3 mps 758 mmHg 39%
    11:00 +38°C° 0 mm 4 mps 758 mmHg 30%
    12:00 +38°C° 0 mm 4 mps 757 mmHg 30%
    13:00 +38°C° 0 mm 4 mps 756 mmHg 29%
    14:00 +39°C° 0 mm 5 mps 756 mmHg 29%
    15:00 +37°C° 0 mm 5 mps 756 mmHg 32%
    16:00 +35°C° 0 mm 5 mps 756 mmHg 36%
    17:00 +34°C° 0 mm 5 mps 755 mmHg 39%
    18:00 +32°C° 0 mm 5 mps 756 mmHg 48%
    19:00 +29°C° 0 mm 4 mps 757 mmHg 56%
    20:00 +27°C° 0 mm 4 mps 757 mmHg 65%
    21:00 +27°C° 0 mm 3 mps 758 mmHg 66%
    22:00 +27°C° 0 mm 2 mps 758 mmHg 66%
    23:00 +27°C° 0 mm 1 mps 759 mmHg 67%

    1 June, Monday

    Time Temperature Precipitation Wind Pressure Humidity
    00:00 +26°C° 0 mm 1 mps 758 mmHg 69%
    01:00 +26°C° 0 mm 1 mps 758 mmHg 70%
    02:00 +26°C° 0 mm 1 mps 758 mmHg 72%
    03:00 +26°C° 0 mm 2 mps 758 mmHg 68%
    04:00 +26°C° 0 mm 2 mps 757 mmHg 63%
    05:00 +27°C° 0 mm 3 mps 757 mmHg 59%
    06:00 +28°C° 0 mm 2 mps 757 mmHg 54%
    07:00 +29°C° 0 mm 2 mps 757 mmHg 48%
    08:00 +30°C° 0 mm 2 mps 758 mmHg 43%
    09:00 +32°C° 0 mm 2 mps 758 mmHg 37%
    10:00 +35°C° 0 mm 1 mps 758 mmHg 32%
    11:00 +37°C° 0 mm 1 mps 758 mmHg 27%
    12:00 +39°C° 0 mm 2 mps 757 mmHg 25%
    13:00 +42°C° 0 mm 3 mps 757 mmHg 24%
    14:00 +43°C° 0 mm 4 mps 756 mmHg 23%
    15:00 +40°C° 0 mm 5 mps 756 mmHg 30%
    16:00 +36°C° 0 mm 6 mps 756 mmHg 37%
    17:00 +34°C° 0 mm 6 mps 756 mmHg 43%
    18:00 +32°C° 0 mm 6 mps 757 mmHg 49%
    19:00 +29°C° 0 mm 5 mps 757 mmHg 55%
    20:00 +27°C° 0 mm 4 mps 758 mmHg 61%
    21:00 +26°C° 0 mm 4 mps 758 mmHg 65%
    22:00 +26°C° 0 mm 3 mps 758 mmHg 69%
    23:00 +25°C° 0 mm 2 mps 758 mmHg 73%

    2 June, Tuesday

    Time Temperature Precipitation Wind Pressure Humidity
    00:00 +25°C° 0 mm 2 mps 758 mmHg 74%
    01:00 +24°C° 0 mm 2 mps 757 mmHg 75%
    02:00 +24°C° 0 mm 2 mps 757 mmHg 76%
    03:00 +24°C° 0 mm 2 mps 757 mmHg 77%
    04:00 +24°C° 0 mm 2 mps 757 mmHg 79%
    05:00 +23°C° 0 mm 2 mps 757 mmHg 80%
    06:00 +25°C° 0 mm 2 mps 757 mmHg 70%
    07:00 +27°C° 0 mm 3 mps 758 mmHg 60%
    08:00 +29°C° 0 mm 3 mps 758 mmHg 49%
    09:00 +33°C° 0 mm 3 mps 758 mmHg 39%
    10:00 +37°C° 0 mm 3 mps 758 mmHg 29%
    11:00 +40°C° 0 mm 3 mps 758 mmHg 19%
    12:00 +40°C° 0 mm 3 mps 757 mmHg 19%
    13:00 +42°C° 0 mm 4 mps 756 mmHg 20%
    14:00 +43°C° 0 mm 4 mps 756 mmHg 20%
    15:00 +40°C° 0 mm 5 mps 755 mmHg 27%
    16:00 +36°C° 0 mm 5 mps 755 mmHg 34%
    17:00 +34°C° 0 mm 6 mps 755 mmHg 42%
    18:00 +32°C° 0 mm 5 mps 755 mmHg 48%
    19:00 +29°C° 0 mm 4 mps 756 mmHg 54%
    20:00 +28°C° 0 mm 4 mps 756 mmHg 61%
    21:00 +27°C° 0 mm 4 mps 756 mmHg 64%
    22:00 +27°C° 0 mm 4 mps 757 mmHg 67%
    23:00 +26°C° 0 mm 3 mps 757 mmHg 71%
    Show more